Home   Weather   Mzuzu   Past weeks

Flag for Malawi Past Weather in Mzuzu, Malawi — Yesterday and Last 2 Weeks

Now
68 °F

Passing clouds.


Feels Like: 68 °F
Forecast: 56 / 77 °F
Wind: 5 mph from Northeast

Location: Lichinga Airport

Current Time: Sep 27, 2016 at 12:29:49 AM

Latest Report: Sep 26, 2016 at 9:00 PM


Visibility: N/A

Pressure: 30.21 "Hg (26.03 "Hg at 1279m altitude)

Humidity: 46%

Dew Point: 46 °F

Location of MzuzuLocation

Past Weather in Mzuzu — Graph

°F

Mzuzu Temperature Yesterday

Maximum temperature yesterday: 79 °F (at 2:00 PM)
Minimum temperature yesterday: 59 °F (at 4:00 AM)
Average temperature yesterday: 70 °F

High & Low Weather Summary for the Past Weeks

 TemperatureHumidityPressure
High82 °F (Sep 17, 2:00 PM)83% (Sep 13, 3:00 PM)30.30 "Hg (Sep 13, 3:00 PM)
Low55 °F (Sep 17, 6:00 AM)28% (Sep 25, 11:00 AM)30.12 "Hg (Sep 16, 2:00 PM)
Average69 °F53%30.21 "Hg
* Reported Sep 11 9:00 PM — Sep 26 9:00 PM, Mzuzu, Weather by CustomWeather, © 2016

Note: Actual official high and low records may vary slightly from our data, if they occured in-between our weather recording intervals... More about our weather records

Advertising

Mzuzu Weather History for the Previous 24 Hours

Scroll right to see more
 ConditionsComfort  
Time TempWeatherWind HumidityBarometerVisibility
9:00 PM
Mon, Sep 26
68 °FPassing clouds.5 mph46%30.21 "HgN/A
8:00 PM70 °FPassing clouds.8 mph43%30.21 "HgN/A
6:00 PM73 °FPassing clouds.10 mph38%30.18 "Hg5 mi
5:00 PM75 °FPassing clouds.15 mph34%30.18 "Hg5 mi
4:00 PM77 °FPassing clouds.13 mph32%30.18 "Hg3 mi
3:00 PM77 °FScattered clouds.14 mph34%30.15 "Hg4 mi
2:00 PM79 °FPartly sunny.14 mph48%30.15 "Hg5 mi
1:00 PM77 °FPartly sunny.15 mph36%30.18 "Hg4 mi
12:00 PM77 °FPartly sunny.15 mph36%30.21 "Hg3 mi
11:00 AM75 °FScattered clouds.16 mph41%30.24 "Hg3 mi
10:00 AM73 °FScattered clouds.14 mph44%30.24 "Hg3 mi
9:00 AM72 °FPassing clouds.17 mph50%30.27 "Hg5 mi
8:00 AM66 °FPassing clouds.13 mph60%30.24 "Hg4 mi
7:00 AM63 °FSunny.7 mph73%30.21 "Hg10 mi
6:00 AM59 °FPassing clouds.6 mph77%30.21 "HgN/A
5:00 AM61 °FClear.8 mph68%30.18 "Hg10 mi
4:00 AM59 °FClear.7 mph72%30.15 "Hg10 mi
2:00 AM66 °FClear.9 mph52%30.15 "Hg10 mi
1:00 AM66 °FClear.7 mph52%30.15 "Hg10 mi
12:00 AM66 °FClear.8 mph52%30.15 "Hg10 mi
Weather by CustomWeather, © 2016

See weather overviewHow to use our weather pages